Location: Saint-Geni�s
(44.0662°N, 4.7216°E)
Time: 06:07:22
(UTC+00:00)

Daily predictions for brighter satellites

Satellite Brightness Start Highest point End
(mag) Time Altitude Azimuth Time Altitude Azimuth Time Altitude Azimuth
Cosmos 2360 Rocket 2.3 19:53:07 10° SSW 19:58:46 89° WNW 20:04:27 10° NNE
KORONAS-FOTON 3.9 19:55:44 10° S 19:59:25 58° E 20:03:08 10° NNE
OBJECT-B 2.9 20:01:01 10° SSW 20:03:47 26° W 20:06:33 10° NW
Landsat 7 4.1 20:00:17 10° SSE 20:04:56 55° ENE 20:09:36 10° N
Cosmos 2322 Rocket 3.4 19:59:37 10° SW 20:05:07 49° WNW 20:10:40 10° NNE
SL-8 R/B 4.2 20:02:35 10° WNW 20:07:14 50° SSW 20:11:52 10° SE
SL-16 R/B 4.0 20:02:12 10° WSW 20:07:26 38° NW 20:12:43 10° NNE
Cosmos 1975 Rocket 3.0 20:03:10 10° S 20:07:31 81° E 20:11:58 10° N
Cosmos 1727 Rocket 4.1 20:01:26 10° S 20:07:44 87° W 20:14:01 10° N
Cosmos 405 4.4 20:05:57 10° NNE 20:08:44 22° ENE 20:11:30 10° SE
Lacrosse 5 4.3 20:06:37 10° W 20:09:13 14° WSW 20:11:49 10° SSW
Lacrosse 5 rocket 2.7 20:06:56 10° WSW 20:10:26 38° NW 20:13:51 10° NE
Cosmos 1340 3.5 20:08:40 10° SSE 20:11:59 31° E 20:15:21 10° NNE
USA 81 4.3 20:08:21 10° N 20:13:37 76° W 20:18:51 10° S
Cosmos 1300 4.2 20:12:11 10° NNE 20:15:15 22° ENE 20:18:17 10° SE
SL-14 R/B 4.1 20:14:50 10° SSE 20:18:30 34° E 20:22:08 10° NNE
ATLAS CENTAUR R/B 1.6 20:15:59 10° NW 20:20:23 90° WSW 20:24:56 11° SSE
Spot 2 Rocket 4.3 20:16:43 10° SE 20:21:22 38° ENE 20:26:04 10° N
Cosmos 1331 Rocket 4.2 20:17:02 10° SSW 20:22:17 80° WNW 20:27:37 10° NNE
Cosmos 1459 Rocket 4.0 20:16:19 10° N 20:22:23 73° E 20:28:28 10° SSE
Cosmos 1626 2.1 20:21:29 10° S 20:25:08 66° E 20:28:49 10° NNE
Cosmos 1844 Rocket 3.1 20:20:55 10° NNW 20:26:32 62° WSW 20:32:06 10° S
Cosmos 1461 4.4 20:23:26 10° NW 20:27:01 28° WSW 20:30:27 10° S
IGS 5A 3.6 20:24:09 10° S 20:28:17 74° WSW 20:32:28 10° NNW
Meteor 1-16 Rocket 4.3 20:24:20 10° NNW 20:29:44 75° W 20:35:00 10° S
MetOp-B 4.2 20:24:52 10° SSE 20:30:13 79° ENE 20:35:35 10° NNW
FALCON 9 DEB 4.5 20:28:21 10° W 20:31:19 39° NNW 20:34:17 10° NE
Cosmos 2278 Rocket 3.4 20:28:18 10° N 20:33:15 30° NE 20:38:06 10° ESE
Cosmos 1802 Rocket 4.1 20:27:28 10° N 20:33:48 74° E 20:40:10 10° SSE
Cosmos 2322 3.7 20:28:13 10° SSW 20:33:51 82° ESE 20:39:32 10° NNE
X-37B 1.6 20:31:14 10° SSW 20:33:58 26° SSE 20:36:41 10° E
Cosmos 1953 2.9 20:33:05 10° NNW 20:37:05 56° W 20:41:02 10° S
Resurs 01 Rocket 2.2 20:33:28 10° S 20:37:47 57° W 20:42:09 10° NNW
COSMOS 2428 2.8 20:33:26 10° S 20:39:04 63° ESE 20:44:46 10° NNE
Cosmos 1302 Rocket 4.0 20:40:48 10° SSW 20:46:03 85° ESE 20:51:20 10° NNE
Cosmos 1544 Rocket 3.8 20:44:39 10° NNW 20:49:07 73° W 20:53:26 10° S
BREEZE-M DEB (TANK) 3.1 20:46:41 10° W 20:49:07 59° NNW 20:54:06 10° ENE
ATLAS CENTAUR R/B 3.9 20:49:28 15° ESE 20:51:06 17° E 20:55:47 10° ENE
Cosmos 1908 4.4 20:47:49 10° NNW 20:51:27 40° W 20:55:02 10° SSW
CZ-2C R/B 3.9 20:47:06 10° NNE 20:51:55 83° WNW 20:56:39 10° SSW
SPOT 1/Viking Rocket 3.6 20:47:36 11° S 20:52:34 79° WSW 20:57:44 10° NNW
Cosmos 1455 Rocket 4.3 20:48:49 10° NNW 20:52:59 39° W 20:57:06 10° SSW
Cosmos 1864 Rocket 4.5 20:50:24 10° N 20:56:35 81° E 21:01:58 14° S
BREEZE-M DEB (TANK) 1.7 20:54:21 10° WSW 20:56:42 76° NNW 21:00:55 10° ENE
Cosmos 2123 Rocket 4.1 21:01:28 10° S 21:07:47 82° W 21:14:09 10° N
Cosmos 1025 Rocket 4.2 21:03:49 10° SSW 21:07:57 42° WNW 21:12:06 10° N
Cosmos 2233 Rocket 4.1 21:03:24 10° N 21:09:33 65° E 21:14:01 19° SSE
Cosmos 1980 4.1 21:05:21 14° S 21:09:55 44° ESE 21:15:17 10° NE
Cosmos 968 Rocket 3.4 21:05:05 10° NNW 21:10:14 89° WSW 21:13:47 21° SSE
Cosmos 2228 3.6 21:08:02 10° N 21:12:17 45° ENE 21:14:34 24° SE
ARIANE 5 R/B 2.7 21:10:25 19° S 21:13:38 80° WSW 21:18:11 10° NNW
Terra 2.1 21:12:09 22° SE 21:15:04 56° ENE 21:19:44 10° N
Cosmos 2219 Rocket 2.9 21:10:48 10° SW 21:16:22 56° WNW 21:21:58 10° NNE
Cosmos 1607 4.3 21:10:18 10° NNW 21:16:38 58° NE 21:21:07 19° SE
Cosmos 389 Rocket 2.9 21:13:51 10° N 21:17:11 45° ENE 21:18:28 30° SE
H-2A R/B 4.0 21:14:38 10° NNE 21:18:28 37° E 21:20:02 27° SE
Cosmos 2061 Rocket 4.4 21:14:36 10° NNW 21:20:57 65° W 21:26:37 13° S
Cosmos 1536 Rocket 4.2 21:18:30 10° SSW 21:22:52 55° W 21:27:15 10° N
Cosmos 1346 Rocket 2.8 21:22:35 24° S 21:24:50 69° E 21:28:52 10° NNE
ATLAS 3B R/B 3.7 21:18:43 10° WSW 21:25:02 48° NW 21:31:36 10° NNE
Cosmos 1992 Rocket 3.9 21:20:56 10° SSW 21:26:06 81° ESE 21:31:22 10° NNE
Cosmos 1486 Rocket 4.0 21:24:30 10° NNW 21:29:45 81° WSW 21:32:48 25° SSE
Cosmos 2333 Rocket 3.7 21:25:14 10° SW 21:30:35 39° NW 21:35:57 10° NNE
CARTOSAT-1 4.4 21:30:07 18° SSW 21:33:04 45° W 21:37:13 10° NNW
NOSS 3-1 (C) 4.3 21:32:57 21° ESE 21:33:33 22° ESE 21:37:51 10° ENE
Cosmos 1867 3.8 21:28:33 10° NW 21:33:58 60° WSW 21:37:01 25° S
Cosmos 1184 Rocket 3.8 21:36:38 29° E 21:36:41 30° E 21:39:33 10° NNE
SPOT 5 3.2 21:34:14 22° S 21:37:26 65° WSW 21:42:13 10° NNW
SL-4 R/B 2.6 21:33:37 10° WSW 21:37:47 56° NNW 21:41:38 10° NE
Cosmos 1455 2.9 21:34:50 10° N 21:38:26 39° ENE 21:39:27 32° ESE
Cosmos 2237 Rocket 2.1 21:37:19 15° SSW 21:42:01 74° ESE 21:47:38 10° NNE
SL-16 R/B 3.2 21:41:05 24° SE 21:42:23 26° ESE 21:47:01 10° NE
ERS-1 Rocket 3.5 21:43:46 22° S 21:46:54 53° W 21:51:51 10° NNW
Cosmos 1354 Rocket 4.1 21:43:14 10° NNW 21:48:36 74° ENE 21:51:08 32° SSE
Cosmos 2369 Rocket 4.5 21:46:46 10° N 21:50:08 16° NE 21:53:29 10° E
Lacrosse 5 rocket 4.4 21:48:38 10° NW 21:50:22 13° NNW 21:52:05 10° NNE
Geosat 4.1 21:51:56 31° S 21:54:20 67° WSW 21:59:22 10° NNW
USA 215 4.0 21:49:44 10° ENE 21:55:20 30° SE 21:56:37 28° SSE
ATLAS CENTAUR R/B 4.1 21:57:24 10° W 21:58:41 11° WSW 21:59:59 10° SW
Meteor 2-1 Rocket 4.5 21:54:31 10° N 21:59:58 55° ENE 22:02:24 32° SE
Meteor 1-4 Rocket 4.1 21:59:22 10° NNE 22:02:07 21° ENE 22:02:27 21° E
Cosmos 1464 Rocket 4.2 21:57:29 10° N 22:03:50 63° E 22:06:55 31° SSE
Meteor 2-10 Rocket 4.2 22:04:20 10° NNW 22:09:06 44° W 22:11:41 24° SSW
X-37B 0.5 22:07:12 10° WSW 22:10:09 75° WSW 22:10:09 75° WSW
Cosmos 1726 Rocket 3.9 22:10:10 10° NNW 22:14:34 61° W 22:16:06 37° SSW
Cosmos 2278 Rocket 2.8 22:12:07 10° NW 22:17:31 46° WSW 22:19:57 29° SSW
Okean 1-7 Rocket 3.5 22:20:45 49° SSE 22:21:52 74° E 22:26:17 10° NNE
SJ 16-02 2.4 22:18:32 10° N 22:22:34 34° ENE 22:23:51 28° E
Cosmos 2058 Rocket 3.0 22:18:46 10° N 22:23:13 82° W 22:24:20 50° S
Cosmos 2297 4.2 22:18:10 10° NNW 22:23:41 52° ENE 22:26:13 30° ESE
Spot 4 4.2 22:22:20 38° SE 22:23:49 55° ENE 22:28:29 10° N
NOSS 2-3 (D) 4.3 22:26:26 34° ESE 22:26:26 34° ESE 22:30:06 10° NE
Cosmos 1943 Rocket 2.8 22:23:52 10° NNW 22:29:10 45° ENE 22:31:41 28° ESE
Cosmos 2034 Rocket 3.9 22:35:49 10° N 22:42:01 85° E 22:44:25 40° SSE
NOSS 2-3 (C) 3.6 22:42:31 55° ESE 22:42:34 55° ESE 22:47:05 10° NE
Cosmos 1441 Rocket 3.8 22:45:54 42° WSW 22:46:40 49° WNW 22:50:22 10° N
Cosmos 1943 4.5 22:51:58 23° ESE 22:52:27 24° ESE 22:56:51 10° NE
GP-B 4.0 22:48:48 10° NNE 22:52:54 35° E 22:53:25 34° ESE
Terra 3.9 22:51:02 13° WSW 22:53:09 17° W 22:56:14 10° NW
USA 32 4.2 22:48:57 10° N 22:54:10 62° E 22:55:33 46° SE
Meteor 1-11 4.2 22:55:27 46° SSE 22:57:01 67° E 23:02:33 10° NNE
ALOS 2 2.6 23:00:30 60° SE 23:01:12 74° ENE 23:05:35 10° N
Cosmos 1626 Rocket 3.7 23:01:37 52° SW 23:02:31 67° W 23:06:56 10° N
GEOS 3 Rocket 3.8 23:04:52 35° ESE 23:07:10 71° NE 23:12:30 10° NNW
Cosmos-2242 3.4 23:05:47 10° N 23:10:05 51° ENE 23:10:40 47° ESE
Cosmos 1602 Rocket 3.6 23:11:17 60° SW 23:12:01 75° W 23:16:31 10° N
Thor Agena Rocket 4.1 23:09:06 10° NNE 23:14:01 41° E 23:14:52 38° ESE
Tsikada Rocket 4.0 23:12:01 40° SSW 23:14:22 79° W 23:20:34 10° N
Cosmos 1869 4.2 23:11:52 10° N 23:15:42 37° ENE 23:16:05 37° E
USA 229 DEB 3.5 23:14:17 37° SSW 23:17:00 80° SE 23:23:49 10° NE
USA 229 3.5 23:14:25 38° SSW 23:17:06 79° SE 23:23:55 10° NE
Aureole 3 3.8 23:13:11 10° N 23:17:29 77° E 23:18:31 56° SSE
SL-4 R/B 4.1 23:14:28 10° WNW 23:17:54 26° N 23:21:07 10° NE
USA 308 4.5 23:21:40 24° E 23:21:40 24° E 23:23:47 10° ENE
COBE Rocket 4.2 23:19:18 46° SW 23:20:19 55° W 23:25:07 10° NNW
Cosmos 1758 Rocket 3.4 23:19:59 70° SSE 23:20:25 80° E 23:24:50 10° N
Cosmos 990 Rocket 4.3 23:17:03 10° NNW 23:22:10 58° ENE 23:23:44 41° ESE
NOSS 3-1 (C) 3.6 23:20:16 23° WSW 23:23:37 61° NW 23:29:51 10° NNE
ATLAS CENTAUR R/B 4.0 23:20:07 10° WSW 23:25:16 61° NNW 23:38:59 10° NE
SL-16 R/B 2.9 23:22:55 23° WSW 23:26:11 49° WNW 23:31:42 10° NNE
Cosmos 2237 Rocket 4.4 23:22:34 10° W 23:26:41 20° NW 23:30:50 10° N
SAR-Lupe-2 3.7 23:25:22 10° NNE 23:28:37 70° NE 23:28:37 70° NE
Cosmos 405 Rocket 3.9 23:30:09 31° E 23:30:09 31° E 23:33:04 10° NNE
Lacrosse 5 rocket 4.4 23:29:28 10° NNW 23:30:50 12° N 23:32:12 10° NNE
ATLAS 5 CENTAUR R/B 3.4 23:32:08 16° E 23:32:08 16° E 23:33:51 10° ENE
Cosmos 2369 Rocket 2.2 23:29:24 10° NNW 23:35:10 78° ENE 23:37:04 44° SE
NOSS 2-3 (E) 4.3 23:33:37 32° WSW 23:35:13 50° NW 23:39:55 10° NNE
USA 305 3.7 23:36:25 38° E 23:36:25 38° E 23:39:29 10° ENE
Cosmos 1356 4.1 23:36:44 48° NE 23:36:44 48° NE 23:39:27 10° NNE
NOSS 3-1 (A) 3.2 23:34:45 40° SW 23:36:49 82° NW 23:43:06 10° NE
Meteor 1-4 Rocket 4.4 23:34:21 10° NW 23:36:35 20° W 23:36:35 20° W
USA 215 3.3 23:32:13 10° NE 23:38:47 82° NW 23:43:55 18° WSW
Cosmos 2221 4.1 23:36:08 10° NNE 23:39:40 25° ENE 23:40:49 22° E
Cosmos 1937 Rocket 4.1 23:37:18 10° NNW 23:42:31 51° ENE 23:44:33 33° ESE
Resurs 1-4 Rocket 4.5 23:41:36 10° ENE 23:42:34 10° E 23:43:33 10° E
Cosmos 1898 Rocket 3.5 23:43:18 10° NNW 23:48:33 78° ENE 23:49:55 50° SE
Cosmos 2279 Rocket 3.9 23:43:42 10° N 23:49:58 84° E 23:52:06 44° SSE
Lacrosse 4 Rocket 3.2 23:51:04 10° N 23:54:32 26° NE 23:56:49 16° E
Cosmos 1242 Rocket 4.3 23:52:58 10° NNE 23:55:58 24° ENE 23:56:31 23° E
